Location: Antin
(43.3330°N, 0.2804°E)
Time: 22:27:43
(UTC+00:00)

Cosmos 1844 Rocket - Pass Details

Date: 16 October 2021
Orbit: 826 x 843 km, 71.0° (Epoch: 03 December)

Event Time Altitude Azimuth Distance (km) Brightness Sun altitude
Rises 19:38:44 0° 341° (NNW) 3,376 6.3 -27.0°
Reaches altitude 10° 19:41:24 10° 351° (N) 2,438 5.3 -27.4°
Enters shadow 19:44:24 26° 16° (NNE) 1,568 4.0 -28.0°
